Location: Northam
(31.6525°S, 116.6655°E)
Time: 18:20:55
(UTC+08:00)

AAUSAT CUBESAT 2 - Pass Details

Date: 26 July 2021
Orbit: 572 x 587 km, 97.5° (Epoch: 18 September)

Event Time Altitude Azimuth Distance (km) Brightness Sun altitude
Rises 04:39:56 0° 21° (NNE) 2,773 ? -30.9°
Reaches altitude 10° 04:42:05 10° 24° (NNE) 1,885 ? -30.5°
Enters shadow 04:43:13 18° 28° (NNE) 1,434 ? -30.2°
